WJA2952 CYUL-MYGF

Flight info

Callsign WJA2952
Flight time 3h 8m
Altitude 34000
Route FAWNS DCT BUGSY DCT PONCT Q437 CRPLR DCT BGBRD Q101 SKARP/N0461F360 Y327 IDOLS DCT DIZNY DCT OZENA AR23 CANIT M202 ADOOR BR65V ZFP
Aircraft B738/M-SDE2E3FGHIRWXY/LB1

Departure

Time 2026-04-30 17:49
Airport Montreal / Pierre Elliott Trudeau International Airport (CYUL)

Arrival

Time 2026-04-30 20:58
Airport Grand Bahama International Airport (MYGF)
Time Latitude Longitude Altitude Speed Heading
2026-04-30 17:39 45.46140 -73.75440 100 ft 14 kts 87°
2026-04-30 17:41 45.46134 -73.74301 102 ft 17 kts 87°
2026-04-30 17:42 45.46185 -73.73998 104 ft 14 kts 43°
2026-04-30 17:42 45.46398 -73.73720 107 ft 15 kts 42°
2026-04-30 17:43 45.46548 -73.73523 109 ft 14 kts 42°
2026-04-30 17:44 45.46780 -73.73218 111 ft 15 kts 43°
2026-04-30 17:44 45.46998 -73.72933 116 ft 13 kts 43°
2026-04-30 17:46 45.47343 -73.72481 113 ft 14 kts 42°
2026-04-30 17:47 45.47612 -73.72126 120 ft 13 kts 43°
2026-04-30 17:48 45.47868 -73.71787 120 ft 14 kts 56°
2026-04-30 17:48 45.47710 -73.71591 124 ft 10 kts 221°
2026-04-30 17:49 45.45551 -73.74375 998 ft 158 kts 215°
2026-04-30 17:50 45.41189 -73.77605 2887 ft 214 kts 210°
2026-04-30 17:51 45.36927 -73.80790 3914 ft 266 kts 211°
2026-04-30 17:52 45.32249 -73.84335 6706 ft 252 kts 210°
2026-04-30 17:53 45.24163 -73.90467 10204 ft 270 kts 208°
2026-04-30 17:54 45.16595 -73.96131 11197 ft 340 kts 207°
2026-04-30 17:55 45.08134 -74.02437 13944 ft 346 kts 206°
2026-04-30 17:56 44.99376 -74.08660 16105 ft 359 kts 198°
2026-04-30 17:57 44.91916 -74.10445 17756 ft 367 kts 188°
2026-04-30 17:58 44.84225 -74.11853 19254 ft 375 kts 188°
2026-04-30 17:59 44.73734 -74.13819 21151 ft 386 kts 187°
2026-04-30 18:00 44.62876 -74.12530 22788 ft 401 kts 175°
2026-04-30 18:00 44.54507 -74.11064 23988 ft 406 kts 175°
2026-04-30 18:01 44.48859 -74.10096 24692 ft 410 kts 175°
2026-04-30 18:02 44.40305 -74.08643 25552 ft 419 kts 175°
2026-04-30 18:02 44.31622 -74.07170 26664 ft 420 kts 175°
2026-04-30 18:03 44.22877 -74.05692 27439 ft 428 kts 175°
2026-04-30 18:04 44.13946 -74.04189 28330 ft 431 kts 175°
2026-04-30 18:05 44.02108 -74.02199 29758 ft 431 kts 176°
2026-04-30 18:06 43.90234 -74.00213 30870 ft 430 kts 176°
2026-04-30 18:07 43.78382 -73.98240 31925 ft 430 kts 176°
2026-04-30 18:08 43.69508 -73.96768 32745 ft 429 kts 176°
2026-04-30 18:09 43.57632 -73.94804 33698 ft 430 kts 176°
2026-04-30 18:10 43.45779 -73.92854 33778 ft 430 kts 176°
2026-04-30 18:11 43.25057 -73.89456 33786 ft 429 kts 177°
2026-04-30 18:13 43.10225 -73.87041 33801 ft 431 kts 177°
2026-04-30 18:14 42.95250 -73.84613 33818 ft 434 kts 177°
2026-04-30 18:15 42.77254 -73.81711 33815 ft 435 kts 178°
2026-04-30 18:16 42.65231 -73.81189 33801 ft 431 kts 185°
2026-04-30 18:17 42.59228 -73.81277 33814 ft 431 kts 185°
2026-04-30 18:18 42.50246 -73.81323 33818 ft 432 kts 184°
2026-04-30 18:18 42.44225 -73.81328 33808 ft 432 kts 185°
2026-04-30 18:19 42.38207 -73.81330 33821 ft 432 kts 185°
2026-04-30 18:19 42.32216 -73.81335 33819 ft 431 kts 185°
2026-04-30 18:20 42.26207 -73.81339 33792 ft 431 kts 185°
2026-04-30 18:20 42.20240 -73.81345 33812 ft 432 kts 185°
2026-04-30 18:21 42.15225 -73.81349 33811 ft 432 kts 185°
2026-04-30 18:21 42.09189 -73.81354 33812 ft 432 kts 185°
2026-04-30 18:22 42.03205 -73.81357 33799 ft 432 kts 185°
2026-04-30 18:22 41.94174 -73.81366 33805 ft 432 kts 185°
2026-04-30 18:23 41.88158 -73.81371 33801 ft 432 kts 185°
2026-04-30 18:23 41.82179 -73.81375 33795 ft 432 kts 186°
2026-04-30 18:24 41.73138 -73.81382 33795 ft 432 kts 185°
2026-04-30 18:25 41.67155 -73.81387 33801 ft 432 kts 186°
2026-04-30 18:25 41.58121 -73.81394 33804 ft 432 kts 186°
2026-04-30 18:26 41.49234 -73.82332 33800 ft 422 kts 200°
2026-04-30 18:27 41.41048 -73.86464 33802 ft 418 kts 206°
2026-04-30 18:28 41.32930 -73.90688 33811 ft 419 kts 205°
2026-04-30 18:28 41.24734 -73.94889 33806 ft 419 kts 206°
2026-04-30 18:29 41.13881 -74.00428 33827 ft 418 kts 206°
2026-04-30 18:30 41.03048 -74.05940 33816 ft 417 kts 206°
2026-04-30 18:31 40.94913 -74.10067 33833 ft 417 kts 206°
2026-04-30 18:32 40.86797 -74.14174 33800 ft 416 kts 206°
2026-04-30 18:32 40.81641 -74.17360 33823 ft 407 kts 217°
2026-04-30 18:33 40.79348 -74.19528 33817 ft 404 kts 224°
2026-04-30 18:33 40.73332 -74.27254 33836 ft 401 kts 227°
2026-04-30 18:34 40.67377 -74.34954 33837 ft 400 kts 227°
2026-04-30 18:35 40.63381 -74.40086 33845 ft 401 kts 227°
2026-04-30 18:35 40.59366 -74.45230 33838 ft 402 kts 227°
2026-04-30 18:36 40.53368 -74.52899 33821 ft 403 kts 227°
2026-04-30 18:37 40.47322 -74.60610 33815 ft 403 kts 227°
2026-04-30 18:37 40.42964 -74.65282 33822 ft 410 kts 214°
2026-04-30 18:38 40.37724 -74.68303 33817 ft 420 kts 200°
2026-04-30 18:38 40.31980 -74.69899 33790 ft 422 kts 198°
2026-04-30 18:39 40.26232 -74.71385 33820 ft 419 kts 198°
2026-04-30 18:39 40.20554 -74.72887 33828 ft 417 kts 199°
2026-04-30 18:40 40.14864 -74.74415 33829 ft 415 kts 199°
2026-04-30 18:40 40.09209 -74.75940 33821 ft 413 kts 199°
2026-04-30 18:41 40.03617 -74.77446 33837 ft 412 kts 199°
2026-04-30 18:41 39.97996 -74.78956 33843 ft 412 kts 199°
2026-04-30 18:42 39.92381 -74.80462 33842 ft 412 kts 199°
2026-04-30 18:42 39.83956 -74.82717 33831 ft 412 kts 199°
2026-04-30 18:45 39.55966 -74.90731 33836 ft 406 kts 210°
2026-04-30 18:45 39.53464 -74.92399 33830 ft 400 kts 217°
2026-04-30 18:46 39.48742 -74.96237 33812 ft 401 kts 217°
2026-04-30 18:46 39.44035 -75.00021 33829 ft 401 kts 217°
2026-04-30 18:47 39.39251 -75.03833 33840 ft 402 kts 217°
2026-04-30 18:47 39.34483 -75.07622 33866 ft 403 kts 217°
2026-04-30 18:48 39.29793 -75.11470 33838 ft 394 kts 221°
2026-04-30 18:48 39.27775 -75.13742 33849 ft 375 kts 226°
2026-04-30 18:48 39.25888 -75.15988 33824 ft 362 kts 226°
2026-04-30 18:49 39.22143 -75.20401 33856 ft 369 kts 226°
2026-04-30 18:49 39.18315 -75.24885 33838 ft 378 kts 226°
2026-04-30 18:50 39.14368 -75.29489 33836 ft 388 kts 226°
2026-04-30 18:50 39.10317 -75.34206 33835 ft 396 kts 226°
2026-04-30 18:51 39.06192 -75.39001 33824 ft 401 kts 226°
2026-04-30 18:51 39.01479 -75.43009 33853 ft 415 kts 209°
2026-04-30 18:52 38.95906 -75.45050 33820 ft 424 kts 193°
2026-04-30 18:52 38.90073 -75.45804 33836 ft 421 kts 193°
2026-04-30 18:53 38.84246 -75.46561 33826 ft 420 kts 193°
2026-04-30 18:53 38.78463 -75.47364 33838 ft 420 kts 194°
2026-04-30 18:54 38.72653 -75.48178 33828 ft 421 kts 193°
2026-04-30 18:54 38.66809 -75.48976 33818 ft 422 kts 193°
2026-04-30 18:55 38.60952 -75.49763 33844 ft 423 kts 193°
2026-04-30 18:55 38.52159 -75.50947 33851 ft 424 kts 193°
2026-04-30 18:56 38.43329 -75.52135 33819 ft 425 kts 193°
2026-04-30 18:57 38.34665 -75.53910 33859 ft 413 kts 206°
2026-04-30 18:57 38.29572 -75.57072 33850 ft 403 kts 219°
2026-04-30 18:58 38.22681 -75.63141 33819 ft 403 kts 220°
2026-04-30 18:59 38.15745 -75.69209 33850 ft 404 kts 219°
2026-04-30 19:00 38.06463 -75.77276 33850 ft 405 kts 219°
2026-04-30 19:01 37.97131 -75.85354 33848 ft 406 kts 220°
2026-04-30 19:02 37.90120 -75.91398 33866 ft 406 kts 220°
2026-04-30 19:03 37.80795 -75.99414 33831 ft 406 kts 220°
2026-04-30 19:04 37.71444 -76.07429 33870 ft 405 kts 220°
2026-04-30 19:05 37.62035 -76.15211 33870 ft 411 kts 213°
2026-04-30 19:05 37.56550 -76.17628 33866 ft 426 kts 199°
2026-04-30 19:06 37.51673 -76.18717 33876 ft 428 kts 198°
2026-04-30 19:06 37.42878 -76.20601 33868 ft 429 kts 198°
2026-04-30 19:07 37.34037 -76.22542 33864 ft 429 kts 199°
2026-04-30 19:08 37.22308 -76.25144 33870 ft 429 kts 199°
2026-04-30 19:09 37.13463 -76.27101 33833 ft 430 kts 199°
2026-04-30 19:09 37.07605 -76.28387 33860 ft 429 kts 199°
2026-04-30 19:10 36.95819 -76.30977 33921 ft 430 kts 199°
2026-04-30 19:11 36.86991 -76.32916 33912 ft 430 kts 199°
2026-04-30 19:12 36.81079 -76.34211 33895 ft 431 kts 199°
2026-04-30 19:12 36.75177 -76.35503 33893 ft 433 kts 199°
2026-04-30 19:13 36.63291 -76.38094 33890 ft 432 kts 200°
2026-04-30 19:14 36.57403 -76.39376 33897 ft 432 kts 200°
2026-04-30 19:14 36.51472 -76.40666 33878 ft 432 kts 200°
2026-04-30 19:15 36.45524 -76.41957 33846 ft 432 kts 200°
2026-04-30 19:15 36.36668 -76.43876 33876 ft 432 kts 200°
2026-04-30 19:16 36.30742 -76.45158 33909 ft 433 kts 200°
2026-04-30 19:17 36.21829 -76.47082 33863 ft 435 kts 201°
2026-04-30 19:17 36.12863 -76.49011 33899 ft 436 kts 201°
2026-04-30 19:18 36.03916 -76.50935 33917 ft 436 kts 201°
2026-04-30 19:19 35.97916 -76.52221 33843 ft 438 kts 201°
2026-04-30 19:19 35.89028 -76.54443 33900 ft 424 kts 210°
2026-04-30 19:20 35.86362 -76.55873 33901 ft 412 kts 217°
2026-04-30 19:20 35.83836 -76.57465 33889 ft 413 kts 217°
2026-04-30 19:21 35.76109 -76.62303 33889 ft 415 kts 217°
2026-04-30 19:22 35.65786 -76.68661 33890 ft 416 kts 217°
2026-04-30 19:23 35.50173 -76.78221 33829 ft 418 kts 217°
2026-04-30 19:24 35.42403 -76.82963 33885 ft 417 kts 217°
2026-04-30 19:25 35.29404 -76.90878 33894 ft 418 kts 218°
2026-04-30 19:26 35.19044 -76.97235 33897 ft 416 kts 218°
2026-04-30 19:27 35.11307 -77.02101 33913 ft 417 kts 218°
2026-04-30 19:28 35.03535 -77.06966 33872 ft 417 kts 219°
2026-04-30 19:29 34.93246 -77.13376 33905 ft 416 kts 219°
2026-04-30 19:30 34.82963 -77.19768 33890 ft 415 kts 219°
2026-04-30 19:31 34.72695 -77.26133 33904 ft 413 kts 219°
2026-04-30 19:31 34.64992 -77.30896 33900 ft 414 kts 219°
2026-04-30 19:32 34.59867 -77.34060 33895 ft 415 kts 219°
2026-04-30 19:32 34.54707 -77.37240 33886 ft 415 kts 219°
2026-04-30 19:33 34.49521 -77.40320 33887 ft 424 kts 214°
2026-04-30 19:33 34.46668 -77.41438 33885 ft 438 kts 206°
2026-04-30 19:33 34.43622 -77.42105 33894 ft 446 kts 202°
2026-04-30 19:34 34.37463 -77.43250 33877 ft 447 kts 202°
2026-04-30 19:35 34.28292 -77.44979 33865 ft 444 kts 202°
2026-04-30 19:35 34.22181 -77.46168 33873 ft 444 kts 202°
2026-04-30 19:36 34.16082 -77.47361 33877 ft 443 kts 202°
2026-04-30 19:36 34.06969 -77.49140 33836 ft 443 kts 201°
2026-04-30 19:37 34.00879 -77.50324 33860 ft 442 kts 201°
2026-04-30 19:37 33.94830 -77.51500 33874 ft 443 kts 201°
2026-04-30 19:38 33.88742 -77.52682 33884 ft 444 kts 201°
2026-04-30 19:38 33.82613 -77.53873 33825 ft 447 kts 201°
2026-04-30 19:39 33.76459 -77.55060 33859 ft 447 kts 201°
2026-04-30 19:39 33.70344 -77.56240 33870 ft 448 kts 201°
2026-04-30 19:40 33.64182 -77.57429 33867 ft 449 kts 201°
2026-04-30 19:40 33.58007 -77.58618 33823 ft 450 kts 201°
2026-04-30 19:41 33.51840 -77.59903 33851 ft 449 kts 202°
2026-04-30 19:41 33.45719 -77.61243 33880 ft 451 kts 202°
2026-04-30 19:42 33.39509 -77.62596 33874 ft 454 kts 202°
2026-04-30 19:42 33.33278 -77.63937 33832 ft 456 kts 202°
2026-04-30 19:43 33.27040 -77.65272 33850 ft 458 kts 202°
2026-04-30 19:44 33.17625 -77.67282 33863 ft 460 kts 202°
2026-04-30 19:44 33.11305 -77.68629 33858 ft 461 kts 202°
2026-04-30 19:45 33.04976 -77.69977 33828 ft 462 kts 202°
2026-04-30 19:45 32.98665 -77.71318 33851 ft 462 kts 202°
2026-04-30 19:46 32.92313 -77.72668 33862 ft 463 kts 202°
2026-04-30 19:46 32.85966 -77.74014 33853 ft 464 kts 202°
2026-04-30 19:47 32.79638 -77.75354 33854 ft 465 kts 202°
2026-04-30 19:47 32.73255 -77.76704 33849 ft 465 kts 202°
2026-04-30 19:48 32.66904 -77.78044 33849 ft 465 kts 202°
2026-04-30 19:48 32.60523 -77.79389 33850 ft 465 kts 202°
2026-04-30 19:49 32.54142 -77.80733 33822 ft 465 kts 202°
2026-04-30 19:49 32.44615 -77.82736 33858 ft 466 kts 202°
2026-04-30 19:50 32.38231 -77.84076 33857 ft 467 kts 201°
2026-04-30 19:50 32.31806 -77.85423 33856 ft 468 kts 201°
2026-04-30 19:51 32.25405 -77.86762 33852 ft 470 kts 201°
2026-04-30 19:51 32.18945 -77.88112 33861 ft 473 kts 201°
2026-04-30 19:52 32.12520 -77.89699 33867 ft 470 kts 204°
2026-04-30 19:52 32.06121 -77.91489 33862 ft 473 kts 204°
2026-04-30 19:53 31.99737 -77.93256 33856 ft 474 kts 204°
2026-04-30 19:53 31.94330 -77.94718 33855 ft 476 kts 203°
2026-04-30 19:54 31.87891 -77.96439 33863 ft 477 kts 203°
2026-04-30 19:54 31.81399 -77.98166 33859 ft 477 kts 203°
2026-04-30 19:55 31.74954 -77.99879 33845 ft 476 kts 203°
2026-04-30 19:55 31.68494 -78.01596 33854 ft 474 kts 203°
2026-04-30 19:56 31.62056 -78.03307 33861 ft 473 kts 203°
2026-04-30 19:56 31.55650 -78.05007 33865 ft 471 kts 203°
2026-04-30 19:57 31.49285 -78.06694 33835 ft 470 kts 202°
2026-04-30 19:57 31.42908 -78.08380 33858 ft 469 kts 202°
2026-04-30 19:58 31.36542 -78.10063 33874 ft 468 kts 202°
2026-04-30 19:58 31.30185 -78.11741 33871 ft 468 kts 202°
2026-04-30 19:59 31.23821 -78.13418 33842 ft 468 kts 202°
2026-04-30 20:00 31.14314 -78.15919 33874 ft 469 kts 202°
2026-04-30 20:00 31.07919 -78.17599 33884 ft 471 kts 202°
2026-04-30 20:01 30.98324 -78.20115 33884 ft 473 kts 202°
2026-04-30 20:01 30.91888 -78.21798 33876 ft 474 kts 202°
2026-04-30 20:02 30.82234 -78.24318 33886 ft 473 kts 201°
2026-04-30 20:03 30.72630 -78.26821 33890 ft 472 kts 201°
2026-04-30 20:03 30.66221 -78.28486 33887 ft 470 kts 201°
2026-04-30 20:04 30.59898 -78.30130 33888 ft 467 kts 201°
2026-04-30 20:05 30.50398 -78.32597 33889 ft 464 kts 201°
2026-04-30 20:05 30.40990 -78.34965 33880 ft 465 kts 196°
2026-04-30 20:06 30.34485 -78.35656 33894 ft 470 kts 192°
2026-04-30 20:06 30.27996 -78.36139 33897 ft 469 kts 192°
2026-04-30 20:07 30.21463 -78.36676 33901 ft 469 kts 192°
2026-04-30 20:08 30.11705 -78.37561 33894 ft 470 kts 193°
2026-04-30 20:08 30.05179 -78.38187 33905 ft 470 kts 194°
2026-04-30 20:09 29.98698 -78.39177 33909 ft 468 kts 197°
2026-04-30 20:09 29.89035 -78.40848 33911 ft 470 kts 196°
2026-04-30 20:10 29.79301 -78.42445 33903 ft 471 kts 195°
2026-04-30 20:11 29.69585 -78.44003 33912 ft 471 kts 195°
2026-04-30 20:11 29.63080 -78.45043 33912 ft 472 kts 195°
2026-04-30 20:12 29.53360 -78.46597 33902 ft 471 kts 195°
2026-04-30 20:13 29.46852 -78.47637 33914 ft 471 kts 195°
2026-04-30 20:13 29.40343 -78.48676 33916 ft 472 kts 195°
2026-04-30 20:14 29.33853 -78.49710 33908 ft 472 kts 195°
2026-04-30 20:14 29.27390 -78.50737 33909 ft 471 kts 194°
2026-04-30 20:15 29.20885 -78.51770 33915 ft 470 kts 194°
2026-04-30 20:15 29.14409 -78.52798 33920 ft 469 kts 194°
2026-04-30 20:16 29.07984 -78.53817 33920 ft 469 kts 194°
2026-04-30 20:16 29.01519 -78.54840 33910 ft 468 kts 194°
2026-04-30 20:17 28.95076 -78.55859 33906 ft 468 kts 194°
2026-04-30 20:17 28.88613 -78.56880 33922 ft 467 kts 194°
2026-04-30 20:18 28.82196 -78.57892 33926 ft 468 kts 194°
2026-04-30 20:18 28.75738 -78.58909 33912 ft 468 kts 194°
2026-04-30 20:19 28.69277 -78.59926 33691 ft 472 kts 194°
2026-04-30 20:19 28.67116 -78.60268 33295 ft 474 kts 194°
2026-04-30 20:19 28.62792 -78.60947 32612 ft 469 kts 194°
2026-04-30 20:19 28.59570 -78.61448 32174 ft 464 kts 194°
2026-04-30 20:20 28.56375 -78.61946 31719 ft 461 kts 194°
2026-04-30 20:20 28.53197 -78.62442 31269 ft 457 kts 194°
2026-04-30 20:20 28.50066 -78.62932 30836 ft 453 kts 194°
2026-04-30 20:20 28.46954 -78.63419 30385 ft 450 kts 194°
2026-04-30 20:21 28.43897 -78.63898 29954 ft 447 kts 194°
2026-04-30 20:21 28.40828 -78.64378 29456 ft 443 kts 194°
2026-04-30 20:21 28.37782 -78.64854 28968 ft 439 kts 194°
2026-04-30 20:21 28.34754 -78.65327 28513 ft 435 kts 194°
2026-04-30 20:22 28.31771 -78.65793 28077 ft 431 kts 194°
2026-04-30 20:22 28.28846 -78.66249 27642 ft 427 kts 194°
2026-04-30 20:22 28.25916 -78.66706 27199 ft 424 kts 194°
2026-04-30 20:22 28.23005 -78.67160 26777 ft 420 kts 194°
2026-04-30 20:23 28.20116 -78.67610 26345 ft 417 kts 194°
2026-04-30 20:23 28.17251 -78.68057 25910 ft 414 kts 194°
2026-04-30 20:23 28.14399 -78.68501 25488 ft 411 kts 194°
2026-04-30 20:23 28.11599 -78.68937 25079 ft 408 kts 194°
2026-04-30 20:24 28.08793 -78.69375 24656 ft 406 kts 194°
2026-04-30 20:24 28.05996 -78.69810 24232 ft 404 kts 193°
2026-04-30 20:24 28.03206 -78.70244 23810 ft 403 kts 193°
2026-04-30 20:24 28.00432 -78.70675 23354 ft 401 kts 193°
2026-04-30 20:25 27.94934 -78.71527 22449 ft 396 kts 193°
2026-04-30 20:25 27.92243 -78.71943 22027 ft 393 kts 193°
2026-04-30 20:26 27.86861 -78.72777 21192 ft 387 kts 193°
2026-04-30 20:26 27.81562 -78.73596 20392 ft 382 kts 193°
2026-04-30 20:26 27.78937 -78.74002 19995 ft 380 kts 193°
2026-04-30 20:27 27.73754 -78.74803 19188 ft 376 kts 193°
2026-04-30 20:27 27.68589 -78.75601 18386 ft 374 kts 193°
2026-04-30 20:28 27.63446 -78.76395 17517 ft 371 kts 193°
2026-04-30 20:28 27.58362 -78.77177 16726 ft 364 kts 192°
2026-04-30 20:29 27.53375 -78.77927 15967 ft 360 kts 189°
2026-04-30 20:30 27.45979 -78.76101 14822 ft 365 kts 169°
2026-04-30 20:30 27.38679 -78.74022 13493 ft 356 kts 170°
2026-04-30 20:31 27.31562 -78.71932 11869 ft 348 kts 169°
2026-04-30 20:32 27.24606 -78.69909 10538 ft 335 kts 169°
2026-04-30 20:32 27.20283 -78.68654 10202 ft 309 kts 169°
2026-04-30 20:33 27.18254 -78.68066 10079 ft 298 kts 169°
2026-04-30 20:33 27.14320 -78.66929 9621 ft 288 kts 169°
2026-04-30 20:33 27.12397 -78.66374 9354 ft 283 kts 169°
2026-04-30 20:34 27.08599 -78.65277 8517 ft 287 kts 169°
2026-04-30 20:34 27.05072 -78.64261 8121 ft 280 kts 169°
2026-04-30 20:35 27.04386 -78.64063 8036 ft 280 kts 169°
2026-04-30 20:35 27.02499 -78.63521 7789 ft 280 kts 169°
2026-04-30 20:35 26.98745 -78.62441 7301 ft 278 kts 168°
2026-04-30 20:36 26.96873 -78.61902 7080 ft 277 kts 168°
2026-04-30 20:36 26.95169 -78.61411 6929 ft 271 kts 168°
2026-04-30 20:36 26.93672 -78.60979 6748 ft 267 kts 168°
2026-04-30 20:37 26.91916 -78.60473 6505 ft 263 kts 168°
2026-04-30 20:37 26.90159 -78.59967 6261 ft 259 kts 168°
2026-04-30 20:37 26.88426 -78.59469 6014 ft 255 kts 168°
2026-04-30 20:37 26.87536 -78.59213 5881 ft 253 kts 168°
2026-04-30 20:38 26.86954 -78.59046 5791 ft 252 kts 168°
2026-04-30 20:38 26.85270 -78.58562 5560 ft 248 kts 168°
2026-04-30 20:38 26.83607 -78.58084 5330 ft 247 kts 168°
2026-04-30 20:39 26.80237 -78.57117 5007 ft 252 kts 168°
2026-04-30 20:39 26.78555 -78.56635 4888 ft 253 kts 168°
2026-04-30 20:39 26.76888 -78.56155 4798 ft 241 kts 168°
2026-04-30 20:40 26.73797 -78.55267 4557 ft 223 kts 168°
2026-04-30 20:40 26.72303 -78.54782 4319 ft 225 kts 159°
2026-04-30 20:40 26.70928 -78.53939 4104 ft 226 kts 153°
2026-04-30 20:41 26.68203 -78.52209 3616 ft 219 kts 154°
2026-04-30 20:41 26.66886 -78.51459 3402 ft 207 kts 167°
2026-04-30 20:41 26.65565 -78.51580 3327 ft 191 kts 211°
2026-04-30 20:41 26.64617 -78.52624 3151 ft 196 kts 234°
2026-04-30 20:42 26.64588 -78.52667 3143 ft 196 kts 234°
2026-04-30 20:42 26.64228 -78.53222 3003 ft 198 kts 235°
2026-04-30 20:42 26.62806 -78.55687 2502 ft 174 kts 241°
2026-04-30 20:43 26.62236 -78.56796 2311 ft 160 kts 241°
2026-04-30 20:43 26.61711 -78.57830 2100 ft 152 kts 242°
2026-04-30 20:43 26.61204 -78.58849 1912 ft 146 kts 242°
2026-04-30 20:44 26.60214 -78.60841 1498 ft 146 kts 241°
2026-04-30 20:44 26.59726 -78.61818 1249 ft 141 kts 241°
2026-04-30 20:44 26.58748 -78.63776 959 ft 152 kts 240°
2026-04-30 20:45 26.57745 -78.65797 554 ft 147 kts 240°
2026-04-30 20:45 26.57248 -78.66790 380 ft 144 kts 241°
2026-04-30 20:45 26.56756 -78.67772 129 ft 146 kts 242°
2026-04-30 20:46 26.55242 -78.70834 813 ft 169 kts 240°
2026-04-30 20:46 26.54648 -78.72043 1403 ft 186 kts 240°
2026-04-30 20:47 26.54612 -78.74851 1921 ft 196 kts 303°
2026-04-30 20:47 26.55642 -78.75840 1967 ft 198 kts 327°
2026-04-30 20:48 26.58131 -78.77389 1964 ft 214 kts 329°
2026-04-30 20:48 26.59572 -78.77862 1994 ft 226 kts 359°
2026-04-30 20:48 26.61084 -78.77378 1984 ft 235 kts 32°
2026-04-30 20:48 26.62261 -78.76023 1995 ft 250 kts 57°
2026-04-30 20:49 26.63147 -78.74348 2007 ft 253 kts 61°
2026-04-30 20:49 26.63985 -78.72607 2014 ft 256 kts 62°
2026-04-30 20:49 26.64816 -78.70874 2002 ft 252 kts 62°
2026-04-30 20:50 26.66486 -78.67441 1983 ft 252 kts 60°
2026-04-30 20:50 26.67320 -78.65748 1990 ft 252 kts 60°
2026-04-30 20:50 26.68167 -78.64040 1973 ft 252 kts 60°
2026-04-30 20:50 26.69019 -78.62328 1992 ft 254 kts 60°
2026-04-30 20:51 26.69878 -78.60602 1988 ft 254 kts 60°
2026-04-30 20:51 26.70652 -78.59046 2006 ft 256 kts 60°
2026-04-30 20:51 26.71460 -78.56587 1972 ft 253 kts 89°
2026-04-30 20:52 26.71297 -78.55300 2011 ft 253 kts 111°
2026-04-30 20:52 26.70373 -78.53661 2014 ft 248 kts 140°
2026-04-30 20:52 26.67191 -78.51539 1962 ft 199 kts 170°
2026-04-30 20:53 26.66316 -78.51480 2001 ft 177 kts 191°
2026-04-30 20:53 26.65217 -78.51882 1960 ft 156 kts 213°
2026-04-30 20:53 26.64432 -78.52669 1969 ft 150 kts 239°
2026-04-30 20:54 26.63347 -78.54663 2003 ft 150 kts 240°
2026-04-30 20:54 26.62818 -78.55678 1982 ft 150 kts 241°
2026-04-30 20:54 26.62304 -78.56674 2023 ft 152 kts 241°
2026-04-30 20:55 26.61257 -78.58744 1936 ft 157 kts 242°
2026-04-30 20:55 26.60733 -78.59797 1706 ft 151 kts 241°
2026-04-30 20:55 26.60223 -78.60820 1467 ft 150 kts 241°
2026-04-30 20:56 26.59243 -78.62783 1108 ft 147 kts 242°
2026-04-30 20:56 26.58747 -78.63779 968 ft 147 kts 240°
2026-04-30 20:56 26.57744 -78.65798 558 ft 150 kts 239°
2026-04-30 20:57 26.57232 -78.66822 339 ft 149 kts 242°
2026-04-30 20:57 26.56740 -78.67812 105 ft 142 kts 242°
2026-04-30 20:57 26.56286 -78.68724 22 ft 122 kts 241°
2026-04-30 20:58 26.55747 -78.69797 24 ft 52 kts 241°
2026-04-30 20:58 26.55581 -78.70130 23 ft 46 kts 241°
2026-04-30 20:58 26.55436 -78.70418 26 ft 40 kts 240°
2026-04-30 20:58 26.55314 -78.70665 28 ft 34 kts 241°
2026-04-30 20:59 26.55095 -78.71006 24 ft 17 kts 192°
2026-04-30 20:59 26.54996 -78.71001 26 ft 15 kts 146°
2026-04-30 21:00 26.54975 -78.70763 23 ft 14 kts 92°
2026-04-30 21:00 26.54971 -78.70631 23 ft 0 kts 91°
2026-04-30 21:01 26.54970 -78.70597 23 ft 4 kts 92°
2026-04-30 21:01 26.54969 -78.70561 23 ft 6 kts 91°
2026-04-30 21:01 26.54924 -78.70483 23 ft 5 kts 177°
2026-04-30 21:02 26.54893 -78.70485 23 ft 4 kts 182°
2026-04-30 21:02 26.54882 -78.70486 26 ft 1 kts 188°
2026-04-30 21:02 26.54875 -78.70493 23 ft 0 kts 232°
2026-04-30 21:02 26.54875 -78.70494 23 ft 0 kts 239°
2026-04-30 21:03 26.54875 -78.70496 23 ft 1 kts 262°
2026-04-30 21:03 26.54876 -78.70501 24 ft 0 kts 270°